Weather History for Altus, OK

Change the Weather History Date:

Thursday, December 20, 2012

  Actual Average (KLTS) Record (KLTS)
Temperature  
Mean Temperature 42 °F -  
Max Temperature 51 °F 48 °F 78 °F (2004)
Min Temperature 32 °F 25 °F 14 °F (1996)
Degree Days  
Heating Degree Days 24    
Moisture  
Dew Point 10 °F    
Average Humidity 36    
Maximum Humidity 60    
Minimum Humidity 13    
Precipitation  
Precipitation 0.00 in - - ()
Sea Level Pressure  
Sea Level Pressure 30.32 in    
Wind  
Wind Speed 20 mph (NW)    
Max Wind Speed 34 mph    
Max Gust Speed 45 mph    
Visibility 10 miles    
Events      
Averages and records for this station are not official NWS values.
T = Trace of Precipitation, MM = Missing Value Source: NWS Daily Summary

Daily Weather History Graph

Daily Weather History Graph

Search for Another Location

Airport:

Trip Planner

Search our weather history database for the weather conditions in past years. The results will help you decide how hot, cold, wet, or windy it might be!

Date:

Astronomy

Dec. 20, 2012 Rise Set
Actual Time 7:40 AM CST 5:30 PM CST
Civil Twilight 7:12 AM CST 5:58 PM CST
Nautical Twilight 6:40 AM CST 6:29 PM CST
Astronomical Twilight 6:10 AM CST 7:00 PM CST
Moon 12:37 PM CST (12/20) 12:41 AM CST (12/20)
Length of Visible Light 10h 45m
Length of Day
9h 49m
First Quarter, 55% of the Moon is Illuminated
Dec 20
First Quarter
Dec 28
Full
Jan 4
Last Quarter
Jan 11
New
Jan 18
First Quarter

Hourly Weather History & Observations

Time (CST) Temp. Windchill Dew Point Humidity Pressure Visibility Wind Dir Wind Speed Gust Speed Precip Events Conditions
12:15 AM 35.6 °F 22.1 °F 21.2 °F 56% 30.02 in 10.0 mi NNW 32.2 mph 40.3 mph N/A   Clear
12:35 AM 35.6 °F 21.7 °F 21.2 °F 56% 30.02 in 10.0 mi NNW 34.5 mph 44.9 mph N/A   Clear
12:55 AM 35.6 °F 22.3 °F 23.0 °F 60% 30.04 in 10.0 mi NNW 31.1 mph 42.6 mph N/A   Clear
1:15 AM 35.6 °F 22.5 °F 23.0 °F 60% 30.06 in 10.0 mi NNW 29.9 mph 39.1 mph N/A   Clear
1:35 AM 35.6 °F 23.0 °F 23.0 °F 60% 30.08 in 10.0 mi NW 27.6 mph 38.0 mph N/A   Clear
1:55 AM 35.6 °F 23.0 °F 23.0 °F 60% 30.10 in 10.0 mi NW 27.6 mph 38.0 mph N/A   Scattered Clouds
2:15 AM 35.6 °F 22.7 °F 23.0 °F 60% 30.12 in 10.0 mi NW 28.8 mph 38.0 mph N/A   Scattered Clouds
2:35 AM 35.6 °F 22.1 °F 23.0 °F 60% 30.13 in 10.0 mi NW 32.2 mph 41.4 mph N/A   Scattered Clouds
2:55 AM 35.6 °F 24.0 °F 21.2 °F 56% 30.15 in 10.0 mi NNW 23.0 mph 39.1 mph N/A   Clear
3:15 AM 35.6 °F 23.7 °F 21.2 °F 56% 30.16 in 10.0 mi NW 24.2 mph 29.9 mph N/A   Clear
3:35 AM 35.6 °F 24.5 °F 19.4 °F 52% 30.17 in 10.0 mi NW 20.7 mph 26.5 mph N/A   Clear
3:55 AM 35.6 °F 23.7 °F 19.4 °F 52% 30.18 in 10.0 mi NW 24.2 mph 29.9 mph N/A   Clear
4:15 AM 35.6 °F 23.7 °F 17.6 °F 48% 30.18 in 10.0 mi NW 24.2 mph 29.9 mph N/A   Clear
4:35 AM 33.8 °F 22.5 °F 15.8 °F 48% 30.20 in 10.0 mi NW 19.6 mph 31.1 mph N/A   Clear
4:55 AM 33.8 °F 21.9 °F 12.2 °F 41% 30.21 in 10.0 mi NW 21.9 mph 32.2 mph N/A   Clear
5:15 AM 33.8 °F 22.8 °F 12.2 °F 41% 30.22 in 10.0 mi NW 18.4 mph 24.2 mph N/A   Clear
5:35 AM 33.8 °F 22.2 °F 12.2 °F 41% 30.23 in 10.0 mi NNW 20.7 mph 25.3 mph N/A   Clear
5:55 AM 33.8 °F 21.9 °F 12.2 °F 41% 30.24 in 10.0 mi NNW 21.9 mph 26.5 mph N/A   Clear
6:15 AM 32.0 °F 20.8 °F 12.2 °F 44% 30.26 in 10.0 mi NW 17.3 mph 26.5 mph N/A   Clear
6:55 AM 32.0 °F 20.8 °F 14.0 °F 48% 30.29 in 10.0 mi NW 17.3 mph 23.0 mph N/A   Clear
7:15 AM 32.0 °F 23.0 °F 14.0 °F 48% 30.31 in 10.0 mi NW 11.5 mph - N/A   Clear
7:35 AM 32.0 °F 23.6 °F 14.0 °F 48% 30.32 in 10.0 mi NW 10.4 mph - N/A   Clear
7:55 AM 32.0 °F 22.5 °F 14.0 °F 48% 30.33 in 10.0 mi NW 12.7 mph - N/A   Clear
8:15 AM 32.0 °F 24.2 °F 14.0 °F 48% 30.34 in 10.0 mi NW 9.2 mph - N/A   Clear
8:35 AM 32.0 °F 23.6 °F 14.0 °F 48% 30.36 in 10.0 mi WNW 10.4 mph - N/A   Clear
8:55 AM 32.0 °F 23.0 °F 14.0 °F 48% 30.37 in 10.0 mi NW 11.5 mph - N/A   Clear
9:15 AM 33.8 °F 24.3 °F 14.0 °F 44% 30.38 in 10.0 mi NW 13.8 mph 21.9 mph N/A   Clear
9:35 AM 35.6 °F 25.5 °F 12.2 °F 38% 30.38 in 10.0 mi NNW 17.3 mph - N/A   Clear
9:55 AM 37.4 °F 28.2 °F 10.4 °F 33% 30.38 in 10.0 mi NNW 16.1 mph - N/A   Clear
10:15 AM 37.4 °F 27.2 °F 10.4 °F 33% 30.39 in 10.0 mi NNW 19.6 mph - N/A   Clear
10:35 AM 39.2 °F 29.3 °F 8.6 °F 28% 30.40 in 10.0 mi NNW 20.7 mph 25.3 mph N/A   Clear
10:55 AM 41.0 °F 31.6 °F 8.6 °F 26% 30.40 in 10.0 mi NNW 20.7 mph 25.3 mph N/A   Clear
11:15 AM 42.8 °F 35.1 °F 6.8 °F 23% 30.40 in 10.0 mi NNW 16.1 mph 23.0 mph N/A   Clear
11:35 AM 42.8 °F 34.3 °F 5.0 °F 21% 30.40 in 10.0 mi NNW 19.6 mph 24.2 mph N/A   Clear
11:55 AM 44.6 °F 37.2 °F 5.0 °F 20% 30.41 in 10.0 mi NW 17.3 mph 24.2 mph N/A   Clear
12:15 PM 44.6 °F 37.4 °F 1.4 °F 17% 30.40 in 10.0 mi NW 16.1 mph - N/A   Clear
12:35 PM 46.4 °F 39.2 °F 1.4 °F 16% 30.39 in 10.0 mi NNW 18.4 mph 23.0 mph N/A   Clear
12:55 PM 48.2 °F - 1.4 °F 15% 30.38 in 10.0 mi NW 20.7 mph 25.3 mph N/A   Clear
1:15 PM 48.2 °F - -0.4 °F 13% 30.38 in 10.0 mi NNW 18.4 mph - N/A   Clear
1:35 PM 50.0 °F - -0.4 °F 13% 30.38 in 10.0 mi NW 16.1 mph 26.5 mph N/A   Clear
1:55 PM 50.0 °F - 1.4 °F 14% 30.37 in 10.0 mi NNW 19.6 mph - N/A   Clear
2:15 PM 50.0 °F - 1.4 °F 14% 30.37 in 10.0 mi NW 15.0 mph 25.3 mph N/A   Clear
2:35 PM 50.0 °F - 1.4 °F 14% 30.37 in 10.0 mi NW 19.6 mph 24.2 mph N/A   Clear
2:55 PM 51.8 °F - 1.4 °F 13% 30.37 in 10.0 mi NNW 20.7 mph 24.2 mph N/A   Clear
3:15 PM 51.8 °F - 1.4 °F 13% 30.37 in 10.0 mi NW 15.0 mph 21.9 mph N/A   Clear
3:35 PM 51.8 °F - 1.4 °F 13% 30.37 in 10.0 mi NW 16.1 mph 20.7 mph N/A   Clear
3:55 PM 50.0 °F - 1.4 °F 14% 30.38 in 10.0 mi NNW 15.0 mph - N/A   Clear
4:15 PM 50.0 °F - 1.4 °F 14% 30.37 in 10.0 mi NW 11.5 mph - N/A   Clear
4:35 PM 50.0 °F - 1.4 °F 14% 30.36 in 10.0 mi NNW 12.7 mph - N/A   Clear
4:55 PM 50.0 °F - 3.2 °F 15% 30.36 in 10.0 mi NW 9.2 mph - N/A   Clear
5:15 PM 46.4 °F 42.4 °F 5.0 °F 18% 30.36 in 10.0 mi NNW 8.1 mph - N/A   Clear
5:35 PM 44.6 °F 42.2 °F 8.6 °F 23% 30.38 in 10.0 mi NW 4.6 mph - N/A   Clear
5:55 PM 42.8 °F 41.1 °F 8.6 °F 25% 30.38 in 10.0 mi NW 3.5 mph - N/A   Clear
6:15 PM 42.8 °F 39.3 °F 8.6 °F 25% 30.38 in 10.0 mi WNW 5.8 mph - N/A   Clear
6:35 PM 39.2 °F - 10.4 °F 31% 30.38 in 10.0 mi Calm Calm - N/A   Clear
6:55 PM 37.4 °F - 10.4 °F 33% 30.38 in 10.0 mi Calm Calm - N/A   Clear
7:15 PM 35.6 °F - 10.4 °F 35% 30.38 in 10.0 mi Calm Calm - N/A   Clear
7:35 PM 33.8 °F 27.7 °F 8.6 °F 35% 30.39 in 10.0 mi WSW 6.9 mph - N/A   Clear
7:55 PM 33.8 °F 28.6 °F 8.6 °F 35% 30.39 in 10.0 mi WSW 5.8 mph - N/A   Clear
8:15 PM 33.8 °F 28.6 °F 8.6 °F 35% 30.39 in 10.0 mi West 5.8 mph - N/A   Clear
8:35 PM 33.8 °F 30.8 °F 8.6 °F 35% 30.38 in 10.0 mi West 3.5 mph - N/A   Clear
8:55 PM 33.8 °F 28.6 °F 8.6 °F 35% 30.39 in 10.0 mi West 5.8 mph - N/A   Clear
9:15 PM 32.0 °F 28.7 °F 10.4 °F 41% 30.40 in 10.0 mi SW 3.5 mph - N/A   Clear
9:35 PM 32.0 °F 27.5 °F 10.4 °F 41% 30.40 in 10.0 mi West 4.6 mph - N/A   Clear
9:55 PM 32.0 °F 28.7 °F 10.4 °F 41% 30.40 in 10.0 mi WNW 3.5 mph - N/A   Clear
10:15 PM 32.0 °F 26.4 °F 10.4 °F 41% 30.41 in 10.0 mi West 5.8 mph - N/A   Clear
10:35 PM 32.0 °F 27.5 °F 8.6 °F 38% 30.41 in 10.0 mi West 4.6 mph - N/A   Clear
10:55 PM 32.0 °F 25.6 °F 8.6 °F 38% 30.41 in 10.0 mi West 6.9 mph - N/A   Clear
11:15 PM 32.0 °F 25.6 °F 8.6 °F 38% 30.41 in 10.0 mi West 6.9 mph - N/A   Clear
11:35 PM 32.0 °F 27.5 °F 8.6 °F 38% 30.40 in 10.0 mi West 4.6 mph - N/A   Clear
11:55 PM 32.0 °F 28.7 °F 8.6 °F 38% 30.40 in 10.0 mi West 3.5 mph - N/A   Clear